Weather History for The Dalles, OR

Change the Weather History Date:

Friday, December 7, 2012

  Actual Average Record
Temperature  
Mean Temperature 44 °F -  
Max Temperature 53 °F 41 °F 56 °F (1957)
Min Temperature 36 °F 31 °F -4 °F (1972)
Degree Days  
Heating Degree Days 20    
Moisture  
Dew Point 35 °F    
Average Humidity 71    
Maximum Humidity 89    
Minimum Humidity 55    
Precipitation  
Precipitation 0.02 in - - ()
Sea Level Pressure  
Sea Level Pressure 30.08 in    
Wind  
Wind Speed 8 mph (WNW)    
Max Wind Speed 25 mph    
Max Gust Speed 33 mph    
Visibility 10 miles    
Events Rain    
Averages and records for this station are not official NWS values.
T = Trace of Precipitation, MM = Missing Value Source: NWS Daily Summary

Daily Weather History Graph

Daily Weather History Graph

Search for Another Location

Airport:

Trip Planner

Search our weather history database for the weather conditions in past years. The results will help you decide how hot, cold, wet, or windy it might be!

Date:

Astronomy

Dec. 07, 2012 Rise Set
Actual Time 7:31 AM PST 4:20 PM PST
Civil Twilight 6:57 AM PST 4:54 PM PST
Nautical Twilight 6:20 AM PST 5:32 PM PST
Astronomical Twilight 5:44 AM PST 6:08 PM PST
Moon 12:40 AM PST (12/7) 12:35 PM PST (12/7)
Length of Visible Light 9h 56m
Length of Day
8h 48m
Last Quarter, 37% of the Moon is Illuminated
Dec 7
Last Quarter
Dec 13
New
Dec 19
First Quarter
Dec 28
Full
Jan 4
Last Quarter

Hourly Weather History & Observations

Time (PST) Temp. Windchill Dew Point Humidity Pressure Visibility Wind Dir Wind Speed Gust Speed Precip Events Conditions
12:53 AM 39.9 °F 37.8 °F 36.0 °F 86% 30.14 in 10.0 mi SE 3.5 mph - N/A   Partly Cloudy
1:53 AM 42.1 °F - 36.0 °F 79% 30.14 in 10.0 mi Calm Calm - N/A   Overcast
2:53 AM 39.9 °F 37.8 °F 35.1 °F 83% 30.13 in 10.0 mi SE 3.5 mph - N/A   Partly Cloudy
3:53 AM 39.9 °F - 33.1 °F 77% 30.12 in 10.0 mi Calm Calm - N/A   Clear
4:53 AM 39.0 °F 34.0 °F 33.1 °F 79% 30.12 in 10.0 mi ESE 6.9 mph - N/A   Mostly Cloudy
5:53 AM 37.0 °F 31.6 °F 32.0 °F 82% 30.10 in 10.0 mi SE 6.9 mph - N/A   Clear
6:53 AM 36.0 °F 33.3 °F 33.1 °F 89% 30.09 in 10.0 mi North 3.5 mph - N/A   Clear
7:53 AM 36.0 °F - 33.1 °F 89% 30.08 in 10.0 mi Calm Calm - N/A   Partly Cloudy
8:53 AM 37.9 °F - 35.1 °F 89% 30.09 in 10.0 mi Calm Calm - 0.00 in Rain Light Rain
9:53 AM 42.1 °F - 36.0 °F 79% 30.06 in 10.0 mi Calm Calm - 0.00 in   Scattered Clouds
10:53 AM 46.0 °F - 39.0 °F 76% 30.05 in 10.0 mi Calm Calm - N/A   Overcast
11:53 AM 50.0 °F - 37.9 °F 63% 30.01 in 10.0 mi West 11.5 mph 19.6 mph N/A   Overcast
12:53 PM 53.1 °F - 37.0 °F 55% 29.99 in 10.0 mi West 24.2 mph 33.4 mph N/A   Clear
1:53 PM 52.0 °F - 37.9 °F 59% 29.97 in 10.0 mi WNW 23.0 mph 29.9 mph N/A   Clear
2:53 PM 50.0 °F - 39.0 °F 66% 29.99 in 10.0 mi NW 24.2 mph 29.9 mph 0.00 in Rain Light Rain
3:53 PM 46.9 °F - 37.9 °F 71% 30.01 in 10.0 mi WNW 25.3 mph 31.1 mph 0.00 in   Partly Cloudy
4:53 PM 46.0 °F 39.0 °F 37.9 °F 73% 30.04 in 10.0 mi West 17.3 mph - 0.02 in   Partly Cloudy
5:53 PM 46.9 °F - 35.1 °F 63% 30.05 in 10.0 mi WNW 19.6 mph 31.1 mph N/A   Partly Cloudy
6:53 PM 46.0 °F 38.3 °F 35.1 °F 66% 30.09 in 10.0 mi WNW 20.7 mph 26.5 mph N/A   Mostly Cloudy
7:53 PM 45.0 °F 36.9 °F 33.1 °F 63% 30.09 in 10.0 mi WNW 20.7 mph 33.4 mph N/A   Clear
8:53 PM 45.0 °F 36.2 °F 30.0 °F 56% 30.11 in 10.0 mi WNW 24.2 mph 32.2 mph N/A   Partly Cloudy
9:53 PM 44.1 °F 35.2 °F 30.0 °F 58% 30.13 in 10.0 mi NW 23.0 mph 33.4 mph N/A   Clear
10:53 PM 44.1 °F 36.2 °F 28.9 °F 55% 30.14 in 10.0 mi WNW 18.4 mph 29.9 mph N/A   Clear
11:53 PM 43.0 °F 34.5 °F 28.9 °F 58% 30.15 in 10.0 mi WNW 19.6 mph 28.8 mph N/A   Clear